This is the latest recevied weather packets stored in our database for station/object KD7KCN-5. If no packets are shown the sender has not sent any weather packets the latest 10 day(s).
| Time | Temp. | Humidity | Pressure | Rain* | Wind** | Luminosity | Snow |
|---|---|---|---|---|---|---|---|
| 1777857713 | 18.33° C | 30% | 1010 hPa | 0 mm | - | 28 W/m² | - |
| 1777857113 | 18.89° C | 27% | 1009.6 hPa | 0 mm | - | 26 W/m² | - |
| 1777856513 | 19.44° C | 26% | 1009 hPa | 0 mm | - | 30 W/m² | - |
| 1777855913 | 19.44° C | 25% | 1009 hPa | 0 mm | - | 39 W/m² | - |
| 1777855313 | 20.56° C | 24% | 1008.7 hPa | 0 mm | - | 39 W/m² | - |
| 1777854713 | 20.56° C | 22% | 1008.7 hPa | 0 mm | - | 49 W/m² | - |
| 1777854113 | 21.11° C | 22% | 1008.7 hPa | 0 mm | - | 174 W/m² | - |
| 1777853515 | 21.67° C | 21% | 1008.6 hPa | 0 mm | - | 137 W/m² | - |
| 1777852913 | 21.67° C | 21% | 1008.7 hPa | 0 mm | - | 381 W/m² | - |
| 1777851713 | 23.33° C | 20% | 1008.9 hPa | 0 mm | - | 422 W/m² | - |
| 1777851113 | 22.78° C | 20% | 1009 hPa | 0 mm | - | 473 W/m² | - |
| 1777850513 | 22.22° C | 20% | 1009.1 hPa | 0 mm | - | 570 W/m² | - |
| 1777849914 | 21.67° C | 19% | 1009.3 hPa | 0 mm | - | 246 W/m² | - |
| 1777849313 | 21.11° C | 18% | 1009.3 hPa | 0 mm | - | 244 W/m² | - |
| 1777848714 | 21.67° C | 19% | 1009.4 hPa | 0 mm | - | 132 W/m² | - |
| 1777848113 | 22.22° C | 17% | 1009.3 hPa | 0 mm | - | 121 W/m² | - |
| 1777847514 | 23.33° C | 16% | 1009.6 hPa | 0 mm | - | 663 W/m² | - |
| 1777846913 | 22.78° C | 16% | 1009.8 hPa | 0 mm | - | 735 W/m² | - |
| 1777846313 | 22.78° C | 16% | 1009.9 hPa | 0 mm | - | 707 W/m² | - |
| 1777845714 | 23.33° C | 17% | 1010.1 hPa | 0 mm | - | 714 W/m² | - |
| 1777845114 | 23.33° C | 18% | 1010.5 hPa | 0 mm | - | 728 W/m² | - |
| 1777844514 | 22.78° C | 17% | 1010.7 hPa | 0 mm | - | 758 W/m² | - |
| 1777843914 | 22.78° C | 17% | 1010.7 hPa | 0 mm | - | 851 W/m² | - |
| 1777843314 | 23.33° C | 17% | 1011.1 hPa | 0 mm | - | 872 W/m² | - |
| 1777842715 | 22.78° C | 17% | 1011.4 hPa | 0 mm | - | 867 W/m² | - |
* Rain latest hour (hover to see other rain measurements)
** Current wind speed in m/s (hover to see current wind gust speed)